[[{"header":{"parameterUnit":"m.s-1","parameterCategory":2,"la1":30.2991,"la2":30.254,"lo1":-89.0895,"lo2":-89.0444,"dy":0.0017,"dx":0.0017,"nx":28,"ny":28,"refTime":"2023-07-19T03:00:00:Z","depth":"0","parameterNumber":2,"parameterNumberName":"U-component_of_CURRENTS"},"data":[0,0,0,0,0,0,0,0,0,0,0,0,0,0,0,0,0,0,0,0,0,0,0,0,0,0,0,0,0,0,0,0,0,0,0,0,0,0,0,0,0,0,0,0,0,0,0,0,0,0,0,0,0,0,0,0,0,0,0.1558,0.1558,0,0.1584,0.1584,0.1584,0.1532,0.153,0.1528,0.1527,0.1479,0.148,0.148,0,0,0,0,0,0,0,0,0,0,0,0,0,0.1405,0.1408,0.1558,0.1558,0.1559,0.1584,0.1584,0.1584,0.1532,0.153,0.1528,0.1526,0.1479,0.148,0.148,0,0,0,0,0,0,0,0,0,0,0,0,0,0.1454,0.1409,0.1558,0.1536,0.1535,0.1584,0.1584,0.1584,0.1532,0.153,0.1528,0.1525,0.1479,0.1479,0.148,0.1531,0,0,0.1481,0.1481,0,0,0,0,0,0,0,0,0.1451,0.146,0.1539,0.1538,0.1536,0.1553,0.1512,0.1563,0.1533,0.1532,0.1527,0.1524,0.15,0.1498,0.1508,0.1528,0.1526,0.1481,0.1481,0.1481,0.1481,0,0,0,0,0,0,0,0.1448,0.1458,0.1567,0.154,0.1538,0.1506,0.151,0.1522,0.1527,0.1532,0.1529,0.1534,0.1498,0.1508,0.1506,0.1526,0.1481,0.1481,0.1481,0.1482,0.1604,0.1606,0,0,0,0,0,0,0.1454,0.1456,0.1566,0.1568,0.1488,0.1511,0.1516,0.1549,0.1528,0.1524,0.1536,0.1532,0.1508,0.1506,0.1504,0.1584,0.1481,0.1482,0.1482,0.1601,0.1604,0.1608,0,0,0,0,0,0,0.1451,0.1465,0.1565,0.1511,0.1521,0.1516,0.1554,0.1551,0.1563,0.1532,0.1525,0.155,0.1506,0.1504,0.1537,0.1581,0.1482,0.1482,0.1597,0.1602,0.1606,0.1731,0,0,0,0,0,0,0.1447,0.1464,0.1498,0.1513,0.1525,0.1604,0.1556,0.1553,0.157,0.1564,0.1543,0.1536,0.1504,0.1537,0.1538,0.1579,0.1482,0.1593,0.1599,0.1604,0.1723,0.1739,0.1753,0,0,0,0,0,0.1442,0.1496,0.1501,0.1514,0.157,0.1606,0.161,0.1595,0.1573,0.1593,0.1588,0.1536,0.1573,0.1541,0.154,0.1583,0.159,0.1597,0.1604,0.1716,0.1736,0.1752,0,0,0,0,0,0,0.1456,0.1497,0.1501,0.1569,0.159,0.1597,0.1621,0.1611,0.1626,0.162,0.1581,0.1576,0.1626,0.1596,0.1561,0.1637,0.1572,0.1579,0.1657,0.1675,0.169,0.1722,0.1483,0,0,0,0,0,0.1478,0.1524,0.1552,0.1607,0.1623,0.1627,0.1642,0.1635,0.1645,0.1648,0.1636,0.1634,0.1659,0.1657,0.1671,0.1712,0.1741,0.1739,0.1754,0.1767,0.1796,0.1894,0.1921,0.163,0.163,0.163,0,0,0.1498,0.1528,0.1554,0.1612,0.1628,0.1667,0.163,0.1665,0.1698,0.1644,0.1691,0.1694,0.1687,0.1739,0.1756,0.1712,0.1869,0.1775,0.1786,0.1809,0.1904,0.1933,0.1958,0.1635,0.1634,0.1633,0,0,0.1545,0.1592,0.1634,0.1662,0.1697,0.1708,0.1722,0.1744,0.1756,0.1809,0.1787,0.183,0.184,0.1859,0.1865,0.1977,0.1957,0.1964,0.2052,0.2147,0.2172,0.2194,0.2285,0.2314,0.1956,0.1956,0.1957,0,0.1563,0.163,0.1651,0.1695,0.1726,0.173,0.1776,0.1806,0.1834,0.1867,0.1837,0.1918,0.1909,0.1991,0.2029,0.2013,0.2059,0.1978,0.2168,0.2191,0.2212,0.2299,0.2329,0.1963,0.1962,0.1962,0.1961,0,0.1631,0.1687,0.1719,0.1778,0.1815,0.1862,0.1898,0.1941,0.1957,0.1984,0.2074,0.2085,0.2127,0.2135,0.2117,0.2253,0.2238,0.2188,0.2122,0.2249,0.2332,0.2362,0.1973,0.1971,0.1969,0.1967,0,0,0.1657,0.1747,0.1757,0.1788,0.1864,0.1892,0.1979,0.2055,0.2105,0.2158,0.2237,0.231,0.2315,0.2327,0.2313,0.2394,0.2585,0.2359,0.236,0.245,0.281,0.2833,0.2867,0.2566,0.2571,0.2576,0.2815,0,0.17,0.1785,0.1827,0.1908,0.1953,0.2001,0.2071,0.2142,0.2198,0.2277,0.2337,0.2401,0.2385,0.2402,0.2498,0.2556,0.2668,0.2526,0.2674,0.2679,0.2685,0.2904,0.2829,0.3039,0.2844,0.2849,0.2853,0,0.174,0.1795,0.1878,0.1962,0.1986,0.2034,0.2141,0.2207,0.2331,0.2377,0.2477,0.2508,0.2651,0.2598,0.2822,0.2731,0.2807,0.2852,0.2861,0.2862,0.2759,0.2879,0.31,0.2971,0.2898,0.2894,0.2891,0,0.1721,0.1823,0.1886,0.192,0.2021,0.2067,0.2124,0.2238,0.2298,0.2444,0.2502,0.2657,0.273,0.2869,0.2979,0.2918,0.3216,0.3126,0.3231,0.3231,0.319,0.3178,0.3306,0.3325,0.3325,0.3324,0.3323,0,0.1747,0.1793,0.1875,0.1911,0.1975,0.2053,0.2132,0.2214,0.2334,0.2424,0.2544,0.2638,0.2806,0.2969,0.306,0.327,0.3295,0.3327,0.3328,0.3232,0.3221,0.3118,0.3086,0.3333,0.3331,0.3329,0.3328,0,0.172,0.178,0.1841,0.1939,0.1963,0.2007,0.2108,0.2171,0.2294,0.2419,0.2471,0.2673,0.2908,0.3075,0.3309,0.3376,0.3487,0.3602,0.3484,0.347,0.3432,0.3411,0.3453,0.3412,0.379,0.3792,0.3795,0,0.1723,0.1751,0.1829,0.1854,0.1897,0.1965,0.2014,0.2135,0.2207,0.2432,0.2495,0.2754,0.2924,0.33,0.3502,0.3743,0.359,0.3777,0.366,0.3503,0.348,0.3266,0.321,0.3656,0.3657,0.3657,0.3658,0,0.1721,0.1734,0.1778,0.1819,0.1863,0.1914,0.1997,0.204,0.2206,0.2321,0.251,0.2664,0.3064,0.3295,0.3622,0.3752,0.3621,0.3799,0.3674,0.3467,0.3209,0.314,0.3406,0.3664,0.3663,0.3663,0.3663,0.3662,0.1701,0.1711,0.1749,0.1789,0.1826,0.1867,0.1903,0.1996,0.2099,0.2276,0.2453,0.2675,0.3029,0.3499,0.3616,0.3755,0.3712,0.368,0.3697,0.3511,0.3393,0.3691,0.3911,0.3911,0.3912,0.3913,0.3913,0,0.1677,0.1692,0.1722,0.1763,0.1782,0.1818,0.1894,0.1934,0.2031,0.22,0.2365,0.2728,0.3005,0.329,0.3596,0.3602,0.3457,0.3553,0.3216,0.3195,0.3509,0.342,0.3496,0.3496,0.3496,0.3496,0.3496,0.3496,0.1668,0.1681,0.1699,0.172,0.1738,0.1761,0.1792,0.1857,0.196,0.2136,0.2314,0.2496,0.2862,0.3246,0.3361,0.3367,0.3166,0.3103,0.3091,0.3272,0.3279,0.3286,0.3189,0.3215,0.3215,0.2598,0.2594,0.2591]},{"header":{"parameterUnit":"m.s-1","parameterCategory":2,"la1":30.2991,"la2":30.254,"lo1":-89.0895,"lo2":-89.0444,"dy":0.0017,"dx":0.0017,"nx":28,"ny":28,"refTime":"2023-07-19T03:00:00:Z","depth":"0","parameterNumber":3,"parameterNumberName":"V-component_of_CURRENTS"},"data":[0,0,0,0,0,0,0,0,0,0,0,0,0,0,0,0,0,0,0,0,0,0,0,0,0,0,0,0,0,0,0,0,0,0,0,0,0,0,0,0,0,0,0,0,0,0,0,0,0,0,0,0,0,0,0,0,0,0,0.0888,0.0888,0,0.0917,0.0917,0.0918,0.0908,0.0907,0.0906,0.0905,0.0869,0.0869,0.0868,0,0,0,0,0,0,0,0,0,0,0,0,0,0.0824,0.0825,0.0888,0.0888,0.0888,0.0917,0.0917,0.0918,0.0908,0.0907,0.0906,0.0904,0.0869,0.0869,0.0868,0,0,0,0,0,0,0,0,0,0,0,0,0,0.0855,0.0826,0.0888,0.0884,0.0884,0.0917,0.0917,0.0918,0.0908,0.0907,0.0905,0.0904,0.0869,0.0869,0.0868,0.0895,0,0,0.0868,0.0868,0,0,0,0,0,0,0,0,0.0853,0.0858,0.0884,0.0884,0.0884,0.0905,0.0881,0.0906,0.0908,0.0902,0.0905,0.0903,0.0874,0.0873,0.0887,0.0893,0.0892,0.0868,0.0868,0.0868,0.0868,0,0,0,0,0,0,0,0.0851,0.0856,0.0902,0.0885,0.0884,0.0881,0.0884,0.0887,0.0896,0.0902,0.0901,0.09,0.0873,0.0887,0.0886,0.0891,0.0868,0.0868,0.0868,0.0868,0.0866,0.0866,0,0,0,0,0,0,0.0843,0.0855,0.0901,0.0903,0.0862,0.0883,0.0887,0.0902,0.0898,0.0895,0.0901,0.0899,0.0888,0.0886,0.0884,0.09,0.0868,0.0868,0.0868,0.0866,0.0866,0.0866,0,0,0,0,0,0,0.0842,0.0848,0.09,0.0876,0.0881,0.0885,0.0902,0.0903,0.0915,0.0897,0.0894,0.0912,0.0887,0.0884,0.0887,0.0899,0.0868,0.0867,0.0866,0.0866,0.0866,0.0942,0,0,0,0,0,0,0.0841,0.0848,0.0871,0.0876,0.0883,0.0922,0.0903,0.0904,0.0915,0.0913,0.0905,0.09,0.0886,0.0887,0.0886,0.0898,0.0867,0.0866,0.0866,0.0866,0.0939,0.0944,0.0949,0,0,0,0,0,0.0839,0.0878,0.0873,0.0879,0.091,0.0923,0.0927,0.0926,0.0917,0.0931,0.0921,0.0901,0.0886,0.0888,0.0887,0.0899,0.0866,0.0866,0.0866,0.0937,0.0943,0.0949,0,0,0,0,0,0,0.0883,0.0881,0.0875,0.0917,0.0917,0.092,0.0941,0.0933,0.094,0.0936,0.0915,0.0911,0.0913,0.0894,0.0897,0.0894,0.0867,0.0867,0.0921,0.0927,0.0932,0.0951,0.0867,0,0,0,0,0,0.0898,0.0914,0.0911,0.0945,0.0948,0.0944,0.0954,0.0946,0.0945,0.0948,0.094,0.0925,0.0915,0.0912,0.0901,0.0914,0.089,0.0913,0.0918,0.0923,0.0934,0.0907,0.0912,0.0866,0.0866,0.0866,0,0,0.0925,0.0924,0.0937,0.0952,0.0956,0.0975,0.0948,0.0962,0.0978,0.0942,0.0969,0.0946,0.0921,0.0928,0.0927,0.0915,0.0922,0.0923,0.0927,0.0937,0.0908,0.0913,0.0917,0.0866,0.0866,0.0866,0,0,0.0974,0.0985,0.1009,0.1011,0.1009,0.1006,0.1008,0.1009,0.1012,0.1029,0.0999,0.0984,0.0985,0.0965,0.0955,0.098,0.0948,0.0969,0.1017,0.0991,0.0995,0.0998,0.0978,0.0978,0.0974,0.0974,0.0974,0,0.1012,0.104,0.102,0.1041,0.1054,0.1021,0.1052,0.1054,0.1054,0.1062,0.1043,0.1029,0.1003,0.1005,0.101,0.0993,0.0976,0.1002,0.0999,0.1002,0.1004,0.0982,0.0982,0.0978,0.0978,0.0977,0.0977,0,0.1069,0.1095,0.1113,0.1124,0.1132,0.1154,0.1142,0.1152,0.1144,0.114,0.114,0.1103,0.1096,0.1075,0.1056,0.1055,0.1037,0.1009,0.0991,0.1013,0.0988,0.0987,0.0983,0.0982,0.0981,0.098,0,0,0.115,0.1154,0.116,0.1175,0.1177,0.1189,0.1215,0.1231,0.1256,0.1233,0.1265,0.1224,0.1197,0.1182,0.114,0.1111,0.1106,0.1076,0.1073,0.1069,0.1058,0.1044,0.1041,0.1082,0.1082,0.1082,0.1037,0,0.1207,0.1252,0.1241,0.129,0.1317,0.1297,0.1327,0.1329,0.1329,0.1351,0.1296,0.1303,0.1239,0.1236,0.12,0.1139,0.1106,0.1121,0.1026,0.1023,0.1019,0.104,0.1002,0.0959,0.1035,0.1035,0.1035,0,0.1264,0.1289,0.1343,0.1368,0.138,0.1403,0.1438,0.146,0.1468,0.147,0.1455,0.142,0.1386,0.1321,0.1226,0.1244,0.1162,0.1096,0.1093,0.1055,0.1007,0.0945,0.0953,0.075,0.1032,0.1032,0.1032,0,0.1311,0.1357,0.1399,0.1412,0.144,0.1464,0.1481,0.1498,0.1521,0.1544,0.1565,0.1517,0.1497,0.1399,0.127,0.1257,0.1157,0.1119,0.1021,0.1018,0.0955,0.0947,0.0765,0.1038,0.1038,0.1038,0.1039,0,0.1368,0.1402,0.1424,0.1451,0.1506,0.1512,0.1565,0.1583,0.1612,0.1651,0.1625,0.164,0.1514,0.1442,0.1315,0.1177,0.119,0.104,0.101,0.098,0.0975,0.077,0.0673,0.1037,0.1037,0.1037,0.1038,0,0.1392,0.1413,0.1461,0.1507,0.1523,0.1558,0.1599,0.1637,0.1673,0.1727,0.1739,0.1729,0.1655,0.1513,0.1357,0.1237,0.0991,0.1035,0.1015,0.0984,0.0723,0.0633,0.0477,0.039,0.0943,0.0943,0.0942,0,0.1404,0.1433,0.1489,0.1517,0.1535,0.1583,0.1616,0.1658,0.17,0.1776,0.1806,0.1775,0.1766,0.1554,0.1331,0.1125,0.0946,0.0945,0.0906,0.0712,0.0588,0.0546,0.0481,0.0847,0.0845,0.0844,0.0844,0,0.1426,0.144,0.1471,0.1528,0.1569,0.1623,0.1678,0.172,0.1785,0.185,0.1927,0.1939,0.1765,0.1571,0.1296,0.1126,0.0808,0.092,0.0711,0.05,0.0448,0.0349,0.0875,0.0835,0.0836,0.0836,0.0837,0.0837,0.1424,0.1442,0.1478,0.1529,0.1582,0.1657,0.1704,0.1777,0.1863,0.1977,0.2006,0.2063,0.1795,0.1434,0.1166,0.0674,0.0725,0.0532,0.0442,0.0421,0.0325,0.0845,0.0776,0.0776,0.0777,0.0777,0.0778,0,0.1411,0.1433,0.1479,0.1544,0.1595,0.1635,0.1738,0.1799,0.1906,0.2035,0.2124,0.2065,0.1654,0.1243,0.0624,0.0268,0.0138,0.0067,-0.004,-0.0082,0.0359,0.034,0.0182,0.0182,0.0182,0.0182,0.0183,0.0183,0.1405,0.143,0.1456,0.1535,0.1584,0.1666,0.1728,0.1845,0.1956,0.2119,0.2198,0.2271,0.1948,0.0819,0.0,-0.0203,-0.0479,-0.051,-0.0617,-0.0375,-0.034,-0.0306,-0.0351,-0.0651,-0.0652,-0.103,-0.1034,-0.1037]}],[{"header":{"parameterUnit":"m.s-1","parameterCategory":2,"la1":30.2991,"la2":30.254,"lo1":-89.0895,"lo2":-89.0444,"dy":0.0017,"dx":0.0017,"nx":28,"ny":28,"refTime":"2023-07-19T03:00:00:Z","depth":"2","parameterNumber":2,"parameterNumberName":"U-component_of_CURRENTS"},"data":[0,0,0,0,0,0,0,0,0,0,0,0,0,0,0,0,0,0,0,0,0,0,0,0,0,0,0,0,0,0,0,0,0,0,0,0,0,0,0,0,0,0,0,0,0,0,0,0,0,0,0,0,0,0,0,0,0,0,0.0407,0.0408,0,0.0486,0.0486,0.0487,0.0524,0.0524,0.0524,0.0524,0.0597,0.0598,0.06,0,0,0,0,0,0,0,0,0,0,0,0,0,0.0277,0.0279,0.0407,0.0408,0.0409,0.0486,0.0487,0.0487,0.0524,0.0524,0.0524,0.0524,0.0596,0.0598,0.06,0,0,0,0,0,0,0,0,0,0,0,0,0,0.034,0.0279,0.0407,0.0438,0.0441,0.0485,0.0487,0.0488,0.0524,0.0524,0.0524,0.0524,0.0595,0.0598,0.0601,0.0615,0,0,0.0609,0.061,0,0,0,0,0,0,0,0,0.0337,0.0345,0.0432,0.0436,0.044,0.0497,0.0467,0.0531,0.0524,0.0491,0.0524,0.0524,0.0564,0.0569,0.0581,0.0618,0.0621,0.0609,0.0611,0.0612,0.0613,0,0,0,0,0,0,0,0.0332,0.0342,0.0436,0.0433,0.0438,0.0444,0.0453,0.0479,0.0524,0.0494,0.0497,0.0508,0.0565,0.0578,0.0583,0.0623,0.0609,0.0612,0.0614,0.0615,0.0744,0.0745,0,0,0,0,0,0,0.0327,0.0338,0.0434,0.0439,0.039,0.0446,0.0457,0.0477,0.0524,0.0532,0.0508,0.051,0.0574,0.058,0.0586,0.0664,0.0612,0.0615,0.0616,0.0742,0.0744,0.0746,0,0,0,0,0,0,0.0324,0.0335,0.0431,0.0391,0.0404,0.0449,0.0471,0.0478,0.0509,0.0535,0.0543,0.0533,0.0574,0.0582,0.0628,0.0665,0.0616,0.0619,0.074,0.0743,0.0745,0.0783,0,0,0,0,0,0,0.032,0.0334,0.0352,0.0391,0.0406,0.0467,0.0471,0.048,0.0515,0.0519,0.0559,0.0565,0.0575,0.0624,0.063,0.0668,0.0621,0.0738,0.0741,0.0744,0.0779,0.0786,0.0793,0,0,0,0,0,0.0315,0.034,0.0352,0.0364,0.0428,0.0468,0.0477,0.0507,0.0517,0.0534,0.0564,0.0565,0.065,0.0627,0.0635,0.0674,0.0736,0.074,0.0744,0.0776,0.0785,0.0792,0,0,0,0,0,0,0.0292,0.0348,0.0362,0.0403,0.0437,0.0475,0.0499,0.0517,0.0555,0.0563,0.0583,0.0591,0.0645,0.0656,0.063,0.0722,0.0695,0.0701,0.0717,0.0726,0.0732,0.0736,0.0623,0,0,0,0,0,0.0296,0.033,0.0376,0.0407,0.0427,0.0465,0.0488,0.051,0.0545,0.0563,0.0593,0.0629,0.0666,0.0691,0.072,0.0769,0.0773,0.0802,0.0808,0.0813,0.0824,0.0852,0.0861,0.0759,0.0759,0.0759,0,0,0.0294,0.033,0.0348,0.0405,0.0434,0.0474,0.0479,0.0521,0.0559,0.0565,0.0627,0.065,0.0683,0.0738,0.0764,0.0754,0.0847,0.0819,0.0823,0.083,0.0857,0.0866,0.0875,0.0762,0.0761,0.0761,0,0,0.0309,0.0341,0.0378,0.0411,0.0464,0.0488,0.0504,0.0555,0.0584,0.0641,0.0657,0.0702,0.0761,0.0792,0.0814,0.0876,0.0876,0.0892,0.0936,0.0963,0.0972,0.0979,0.0998,0.1007,0.0901,0.0901,0.0901,0,0.0305,0.0362,0.0392,0.0437,0.0469,0.0497,0.0541,0.0575,0.0636,0.0665,0.0668,0.0765,0.0788,0.0857,0.0885,0.0891,0.0904,0.09,0.097,0.0978,0.0984,0.1003,0.1012,0.0904,0.0903,0.0903,0.0903,0,0.035,0.0398,0.0422,0.0489,0.0523,0.0564,0.0612,0.0651,0.0687,0.0722,0.0796,0.0831,0.0891,0.0909,0.0922,0.0992,0.0985,0.0968,0.0945,0.0997,0.1013,0.1022,0.0907,0.0906,0.0905,0.0905,0,0,0.034,0.0435,0.0447,0.0483,0.0556,0.0585,0.0649,0.0712,0.0755,0.0813,0.0874,0.0945,0.0966,0.0994,0.1014,0.1044,0.1104,0.1038,0.1038,0.1048,0.1168,0.1118,0.1123,0.1101,0.1103,0.1104,0.1159,0,0.0369,0.0451,0.0497,0.0569,0.0612,0.0657,0.0711,0.0768,0.0818,0.088,0.0926,0.0993,0.0998,0.1037,0.107,0.1095,0.113,0.1091,0.1124,0.1125,0.1068,0.1132,0.1052,0.1091,0.1168,0.1169,0.117,0,0.0406,0.0456,0.0532,0.0612,0.0635,0.0681,0.0761,0.0816,0.0899,0.0941,0.101,0.1046,0.1124,0.1108,0.1185,0.1162,0.118,0.1187,0.1189,0.1136,0.1093,0.1054,0.1104,0.1185,0.1183,0.1182,0.1181,0,0.0381,0.0481,0.0539,0.0569,0.0661,0.0704,0.0756,0.0837,0.0884,0.0989,0.1031,0.1114,0.1167,0.1203,0.1237,0.1224,0.1295,0.127,0.124,0.1236,0.1171,0.1158,0.1322,0.1321,0.1321,0.1321,0.1321,0,0.0394,0.044,0.0534,0.0564,0.0626,0.07,0.0769,0.0832,0.0921,0.0971,0.1066,0.1108,0.1196,0.1243,0.126,0.1281,0.1318,0.1265,0.1255,0.1182,0.117,0.1249,0.1239,0.1323,0.1323,0.1322,0.1322,0,0.0356,0.0425,0.0485,0.0583,0.0617,0.066,0.0763,0.0802,0.0908,0.0976,0.1017,0.1127,0.1197,0.1259,0.1319,0.1309,0.1328,0.1322,0.123,0.1208,0.1246,0.1239,0.1305,0.1304,0.1303,0.1302,0.1302,0,0.0344,0.0374,0.0474,0.0503,0.055,0.0626,0.0667,0.0781,0.0818,0.0963,0.0977,0.1098,0.114,0.1222,0.1251,0.1288,0.1315,0.1224,0.118,0.1265,0.1249,0.1243,0.1236,0.1115,0.1113,0.1111,0.1109,0,0.0297,0.0335,0.0374,0.0443,0.0493,0.0543,0.0615,0.0638,0.0762,0.083,0.0909,0.0966,0.108,0.1103,0.1173,0.1164,0.1213,0.1187,0.1321,0.112,0.1087,0.107,0.107,0.1094,0.1095,0.1097,0.1097,0.1098,0.024,0.025,0.0308,0.0369,0.0424,0.0453,0.0472,0.0535,0.0588,0.0705,0.0783,0.0885,0.0957,0.1027,0.1034,0.1069,0.1114,0.1086,0.1092,0.1099,0.1056,0.1022,0.1009,0.101,0.1011,0.1011,0.1012,0,0.0158,0.0196,0.0234,0.029,0.0316,0.0393,0.043,0.044,0.0474,0.0617,0.0709,0.0737,0.0789,0.0893,0.0927,0.0934,0.0921,0.0911,0.0902,0.0917,0.093,0.0878,0.0785,0.0784,0.0784,0.0783,0,0,0.0113,0.012,0.015,0.0179,0.0235,0.0259,0.0278,0.0311,0.0395,0.0489,0.0605,0.0736,0.083,0.079,0.0797,0.0812,0.085,0.078,0.0957,0.0957,0.097,0.1021,0.0956,0,0,0,0,0]},{"header":{"parameterUnit":"m.s-1","parameterCategory":2,"la1":30.2991,"la2":30.254,"lo1":-89.0895,"lo2":-89.0444,"dy":0.0017,"dx":0.0017,"nx":28,"ny":28,"refTime":"2023-07-19T03:00:00:Z","depth":"2","parameterNumber":3,"parameterNumberName":"V-component_of_CURRENTS"},"data":[0,0,0,0,0,0,0,0,0,0,0,0,0,0,0,0,0,0,0,0,0,0,0,0,0,0,0,0,0,0,0,0,0,0,0,0,0,0,0,0,0,0,0,0,0,0,0,0,0,0,0,0,0,0,0,0,0,0,-0.0714,-0.0713,0,-0.0644,-0.0643,-0.0642,-0.0599,-0.0599,-0.0599,-0.0598,-0.0519,-0.0518,-0.0516,0,0,0,0,0,0,0,0,0,0,0,0,0,-0.0781,-0.078,-0.0714,-0.0713,-0.0712,-0.0644,-0.0643,-0.0642,-0.0599,-0.0599,-0.0598,-0.0598,-0.052,-0.0518,-0.0516,0,0,0,0,0,0,0,0,0,0,0,0,0,-0.0736,-0.078,-0.0714,-0.0682,-0.0678,-0.0644,-0.0643,-0.0642,-0.0599,-0.0599,-0.0598,-0.0598,-0.0521,-0.0518,-0.0515,-0.0507,0,0,-0.0507,-0.0506,0,0,0,0,0,0,0,0,-0.0739,-0.0734,-0.0688,-0.0684,-0.068,-0.0629,-0.0638,-0.0596,-0.0599,-0.063,-0.0598,-0.0598,-0.0555,-0.055,-0.0538,-0.0503,-0.05,-0.0507,-0.0505,-0.0504,-0.0503,0,0,0,0,0,0,0,-0.0742,-0.0736,-0.0687,-0.0687,-0.0682,-0.0661,-0.0654,-0.0629,-0.0596,-0.0627,-0.0624,-0.0615,-0.0553,-0.0541,-0.0536,-0.0499,-0.0507,-0.0504,-0.0503,-0.0502,-0.044,-0.044,0,0,0,0,0,0,-0.0751,-0.0739,-0.0689,-0.0685,-0.0708,-0.066,-0.0653,-0.0646,-0.0596,-0.0588,-0.0616,-0.0613,-0.0546,-0.0539,-0.0533,-0.0493,-0.0504,-0.0501,-0.05,-0.044,-0.044,-0.044,0,0,0,0,0,0,-0.0753,-0.0747,-0.0692,-0.071,-0.0701,-0.0659,-0.0653,-0.0645,-0.0619,-0.0588,-0.0579,-0.0595,-0.0545,-0.0537,-0.0507,-0.0491,-0.05,-0.0497,-0.044,-0.044,-0.044,-0.0431,0,0,0,0,0,0,-0.0755,-0.0749,-0.0737,-0.071,-0.07,-0.066,-0.0653,-0.0644,-0.0615,-0.0611,-0.0567,-0.056,-0.0544,-0.0511,-0.0504,-0.0487,-0.0495,-0.044,-0.044,-0.044,-0.0431,-0.0431,-0.043,0,0,0,0,0,-0.0758,-0.0741,-0.0737,-0.073,-0.0689,-0.0659,-0.0651,-0.0621,-0.0614,-0.0597,-0.0577,-0.0561,-0.0507,-0.0509,-0.0501,-0.0483,-0.044,-0.044,-0.044,-0.0432,-0.0431,-0.043,0,0,0,0,0,0,-0.0753,-0.0734,-0.0729,-0.0705,-0.0681,-0.0651,-0.0627,-0.0615,-0.0586,-0.0579,-0.0557,-0.0549,-0.0519,-0.0506,-0.0509,-0.0468,-0.0472,-0.047,-0.0468,-0.0468,-0.0467,-0.0463,-0.0493,0,0,0,0,0,-0.0752,-0.0737,-0.0717,-0.0693,-0.0682,-0.0655,-0.0636,-0.0619,-0.0595,-0.058,-0.0553,-0.0531,-0.0515,-0.0495,-0.0478,-0.0449,-0.0461,-0.0435,-0.0434,-0.0434,-0.0427,-0.0449,-0.045,-0.044,-0.044,-0.044,0,0,-0.0738,-0.0728,-0.0716,-0.0691,-0.0669,-0.0644,-0.0642,-0.0609,-0.0586,-0.0577,-0.0532,-0.0525,-0.051,-0.0482,-0.0467,-0.0465,-0.0445,-0.0434,-0.0433,-0.0426,-0.0449,-0.0451,-0.0451,-0.044,-0.044,-0.044,0,0,-0.0706,-0.0701,-0.0676,-0.0662,-0.0633,-0.0623,-0.0613,-0.0582,-0.0564,-0.0531,-0.0527,-0.0515,-0.0473,-0.0466,-0.0457,-0.0444,-0.0446,-0.0435,-0.0418,-0.044,-0.0441,-0.0442,-0.0467,-0.047,-0.0428,-0.0428,-0.0428,0,-0.0686,-0.0658,-0.0661,-0.0637,-0.0615,-0.0614,-0.0578,-0.0567,-0.0529,-0.0514,-0.0513,-0.0478,-0.0466,-0.0447,-0.0445,-0.044,-0.0456,-0.042,-0.044,-0.0441,-0.0442,-0.0467,-0.0471,-0.0428,-0.0428,-0.0428,-0.0428,0,-0.0642,-0.0614,-0.0597,-0.0572,-0.0555,-0.0523,-0.0516,-0.0497,-0.0484,-0.0473,-0.0449,-0.0448,-0.0425,-0.0427,-0.0428,-0.0426,-0.0436,-0.0442,-0.0441,-0.0443,-0.0469,-0.0473,-0.0427,-0.0428,-0.0428,-0.0428,0,0,-0.0595,-0.0569,-0.0558,-0.0532,-0.0516,-0.0492,-0.0471,-0.0444,-0.042,-0.0412,-0.0385,-0.0382,-0.039,-0.0383,-0.0391,-0.0411,-0.044,-0.0426,-0.0427,-0.0449,-0.0493,-0.052,-0.0527,-0.0451,-0.0451,-0.0452,-0.0511,0,-0.0545,-0.049,-0.0494,-0.0433,-0.04,-0.0406,-0.0383,-0.0369,-0.0362,-0.0342,-0.0364,-0.0341,-0.0372,-0.0358,-0.0389,-0.0425,-0.0449,-0.0424,-0.0488,-0.049,-0.0513,-0.0532,-0.049,-0.0541,-0.0515,-0.0515,-0.0516,0,-0.049,-0.0461,-0.0395,-0.0356,-0.0342,-0.0311,-0.0275,-0.0256,-0.0257,-0.0252,-0.026,-0.0279,-0.0306,-0.0331,-0.0408,-0.0391,-0.0438,-0.0476,-0.0479,-0.0507,-0.0524,-0.0533,-0.0549,-0.0523,-0.0522,-0.0522,-0.0521,0,-0.044,-0.0386,-0.033,-0.0316,-0.028,-0.0246,-0.0225,-0.0215,-0.0194,-0.0192,-0.0179,-0.0227,-0.0233,-0.0312,-0.0399,-0.0401,-0.0492,-0.0503,-0.0574,-0.0577,-0.0555,-0.0555,-0.0557,-0.0557,-0.0556,-0.0556,-0.0556,0,-0.0384,-0.0333,-0.0296,-0.0261,-0.0193,-0.0188,-0.0125,-0.0116,-0.0104,-0.0081,-0.0124,-0.0125,-0.0228,-0.0297,-0.0388,-0.05,-0.0487,-0.0576,-0.0595,-0.0552,-0.0551,-0.0541,-0.0539,-0.0558,-0.0558,-0.0558,-0.0557,0,-0.033,-0.0307,-0.0237,-0.0185,-0.0163,-0.011,-0.006,-0.0031,-0.0018,0.0007,0.0011,-0.0047,-0.0142,-0.0257,-0.0383,-0.0471,-0.0579,-0.0616,-0.0562,-0.0575,-0.0653,-0.0649,-0.0708,-0.071,-0.0711,-0.0712,-0.0713,0,-0.0296,-0.0256,-0.0182,-0.0142,-0.0108,-0.0041,-0.0007,0.0017,0.0038,0.0048,0.0054,-0.0012,-0.0088,-0.0288,-0.0424,-0.0587,-0.0606,-0.0657,-0.0657,-0.0656,-0.0669,-0.0663,-0.0658,-0.0625,-0.0625,-0.0626,-0.0626,0,-0.0238,-0.0211,-0.0164,-0.0086,-0.003,0.002,0.0072,0.0097,0.0111,0.0126,0.011,0.0055,-0.0108,-0.0273,-0.0477,-0.0574,-0.0633,-0.0666,-0.0674,-0.0597,-0.0584,-0.0594,-0.0591,-0.0626,-0.0626,-0.0626,-0.0626,-0.0626,-0.02,-0.0163,-0.0108,-0.0034,0.0027,0.0071,0.0113,0.0141,0.0169,0.0186,0.0126,0.0063,-0.0119,-0.0378,-0.0516,-0.062,-0.0648,-0.0703,-0.07,-0.0698,-0.0681,-0.0672,-0.0727,-0.0728,-0.0728,-0.0729,-0.0729,0,-0.0171,-0.0129,-0.0066,0.0012,0.0066,0.011,0.0156,0.0167,0.0198,0.02,0.0176,-0.0011,-0.0185,-0.0341,-0.0494,-0.064,-0.0611,-0.0675,-0.0613,-0.0613,-0.0613,-0.0589,-0.0612,-0.0612,-0.0612,-0.0612,0,0,-0.0152,-0.0103,-0.0079,0.002,0.0092,0.0172,0.0205,0.021,0.0211,0.0178,0.0165,0.0062,-0.0158,-0.0265,-0.0442,-0.0508,-0.0518,-0.0513,-0.0598,-0.0505,-0.0502,-0.0629,-0.0593,0,0,0,0,0]}],[{"header":{"parameterUnit":"m.s-1","parameterCategory":2,"la1":30.2991,"la2":30.254,"lo1":-89.0895,"lo2":-89.0444,"dy":0.0017,"dx":0.0017,"nx":28,"ny":28,"refTime":"2023-07-19T03:00:00:Z","depth":"4","parameterNumber":2,"parameterNumberName":"U-component_of_CURRENTS"},"data":[0,0,0,0,0,0,0,0,0,0,0,0,0,0,0,0,0,0,0,0,0,0,0,0,0,0,0,0,0,0,0,0,0,0,0,0,0,0,0,0,0,0,0,0,0,0,0,0,0,0,0,0,0,0,0,0,0,0,0.0268,0.0268,0,0.0262,0.0262,0.0262,0.027,0.027,0.027,0.0271,0.0266,0.0266,0.0265,0,0,0,0,0,0,0,0,0,0,0,0,0,0.0271,0.0271,0.0268,0.0268,0.0268,0.0262,0.0262,0.0262,0.027,0.027,0.027,0.0271,0.0266,0.0266,0.0265,0,0,0,0,0,0,0,0,0,0,0,0,0,0.0268,0.0271,0.0268,0.0271,0.0271,0.0262,0.0262,0.0262,0.027,0.027,0.027,0.0271,0.0266,0.0266,0.0265,0.0254,0,0,0.0264,0.0263,0,0,0,0,0,0,0,0,0.0268,0.0268,0.027,0.0271,0.0271,0.0267,0.0262,0.0259,0.027,0.027,0.0271,0.0271,0.0266,0.0266,0.0264,0.0254,0.0253,0.0263,0.0263,0.0263,0.0263,0,0,0,0,0,0,0,0.0268,0.0268,0.0266,0.027,0.027,0.0267,0.0268,0.0261,0.0266,0.027,0.0271,0.027,0.0266,0.0264,0.0264,0.0253,0.0264,0.0263,0.0263,0.0262,0.025,0.025,0,0,0,0,0,0,0.0269,0.0268,0.0266,0.0266,0.027,0.0267,0.0267,0.0268,0.0266,0.0266,0.027,0.027,0.0265,0.0264,0.0264,0.027,0.0263,0.0262,0.0262,0.025,0.025,0.025,0,0,0,0,0,0,0.0269,0.0269,0.0266,0.0267,0.0266,0.0267,0.0267,0.0268,0.0278,0.0266,0.0266,0.0281,0.0265,0.0264,0.0262,0.0269,0.0262,0.0262,0.025,0.025,0.025,0.027,0,0,0,0,0,0,0.0269,0.0269,0.0274,0.0267,0.0266,0.027,0.0267,0.0267,0.0276,0.0277,0.0275,0.0274,0.0266,0.0263,0.0262,0.0268,0.0261,0.025,0.025,0.025,0.027,0.0271,0.0272,0,0,0,0,0,0.0269,0.0269,0.0274,0.0274,0.0271,0.027,0.027,0.0271,0.0276,0.0282,0.0276,0.0275,0.0262,0.0263,0.0261,0.0268,0.025,0.025,0.025,0.0269,0.0271,0.0272,0,0,0,0,0,0,0.0268,0.027,0.0275,0.0275,0.0278,0.0272,0.0275,0.0278,0.0279,0.0282,0.0273,0.0272,0.0272,0.0266,0.0267,0.0263,0.0256,0.0256,0.0272,0.0273,0.0274,0.0282,0.0261,0,0,0,0,0,0.0271,0.0274,0.0276,0.0276,0.0281,0.0282,0.0284,0.0287,0.0284,0.0286,0.0284,0.0278,0.0268,0.0269,0.0259,0.0259,0.026,0.0262,0.0264,0.0265,0.0269,0.027,0.0272,0.025,0.025,0.025,0,0,0.0269,0.027,0.0272,0.0277,0.028,0.0285,0.0285,0.0291,0.0294,0.0284,0.029,0.0282,0.0267,0.0264,0.0264,0.0263,0.0272,0.0265,0.0266,0.027,0.0271,0.0273,0.0275,0.025,0.025,0.025,0,0,0.0263,0.0271,0.0275,0.0281,0.0291,0.0291,0.0298,0.0302,0.0307,0.0309,0.0299,0.0297,0.0289,0.0279,0.0271,0.0274,0.0276,0.0274,0.0291,0.0292,0.0294,0.0296,0.0306,0.0308,0.0278,0.0278,0.0278,0,0.0262,0.0267,0.0275,0.0282,0.0288,0.0297,0.0304,0.0306,0.0309,0.0312,0.0315,0.0305,0.0295,0.0285,0.0286,0.0278,0.0283,0.0287,0.0295,0.0296,0.0298,0.0307,0.031,0.0279,0.0279,0.0279,0.0279,0,0.026,0.027,0.0273,0.0286,0.0293,0.0301,0.0308,0.0318,0.0327,0.0329,0.0332,0.032,0.0316,0.0311,0.03,0.0303,0.0305,0.0294,0.0293,0.0302,0.0311,0.0313,0.0281,0.028,0.028,0.028,0,0,0.0238,0.0268,0.0268,0.0282,0.0299,0.0303,0.0312,0.0322,0.033,0.0339,0.0348,0.0334,0.034,0.0332,0.0321,0.0323,0.0338,0.0318,0.0318,0.0333,0.0352,0.0379,0.0384,0.0331,0.0331,0.0332,0.0356,0,0.0236,0.0254,0.0266,0.0282,0.0294,0.031,0.0316,0.0327,0.0338,0.0348,0.0347,0.0349,0.0344,0.0345,0.0348,0.0336,0.0344,0.0333,0.0337,0.0337,0.0365,0.0388,0.0333,0.0358,0.0358,0.0359,0.0359,0,0.0226,0.0242,0.026,0.0289,0.0296,0.0305,0.0325,0.0333,0.0348,0.0357,0.0368,0.037,0.0374,0.0367,0.0372,0.0367,0.0365,0.0359,0.036,0.0381,0.037,0.0345,0.0363,0.0363,0.0362,0.0362,0.0362,0,0.0204,0.0235,0.0251,0.0261,0.0292,0.0303,0.0319,0.0336,0.0343,0.0364,0.0375,0.0386,0.0392,0.0393,0.0398,0.0384,0.0408,0.0382,0.0407,0.0409,0.0366,0.0363,0.0388,0.0388,0.0388,0.0388,0.0388,0,0.0192,0.0203,0.0245,0.0253,0.027,0.0297,0.0311,0.0329,0.0349,0.0359,0.038,0.039,0.04,0.0417,0.0412,0.0433,0.0424,0.0421,0.042,0.0374,0.0373,0.0368,0.0365,0.0389,0.0389,0.0389,0.0389,0,0.016,0.0189,0.0208,0.0248,0.026,0.0271,0.0303,0.0311,0.034,0.0353,0.0362,0.0396,0.0428,0.0447,0.0455,0.0455,0.0464,0.0471,0.0442,0.0437,0.0456,0.0454,0.0493,0.0494,0.0495,0.0496,0.0497,0,0.0148,0.0155,0.0196,0.0208,0.0226,0.0249,0.026,0.0296,0.0307,0.0352,0.0357,0.0405,0.0428,0.047,0.049,0.0514,0.0506,0.0512,0.0467,0.0473,0.0468,0.0465,0.0461,0.0498,0.0498,0.0499,0.0499,0,0.0119,0.0132,0.0148,0.0178,0.0196,0.0213,0.0239,0.0247,0.0288,0.0311,0.0352,0.039,0.0438,0.0473,0.0515,0.0518,0.0508,0.0523,0.0519,0.0477,0.048,0.0474,0.0469,0.0503,0.0502,0.0502,0.0502,0,0.009,0.0095,0.0121,0.0145,0.0167,0.0186,0.0201,0.0231,0.0252,0.0309,0.0321,0.0383,0.0422,0.0477,0.0504,0.0535,0.0517,0.0495,0.0492,0.0488,0.0482,0.0486,0.052,0,0,0,0,0,0.0062,0.0071,0.009,0.0124,0.0148,0.0166,0.0192,0.0209,0.0249,0.027,0.03,0.0346,0.0415,0.045,0.0482,0.0511,0.052,0.0547,0.0491,0.0523,0.0519,0.0515,0,0,0,0,0,0,0.0045,0.0057,0.0079,0.0105,0.0127,0.0153,0.017,0.0197,0.0217,0.0259,0.0296,0.0336,0.0404,0.0393,0.0476,0.049,0.0453,0.0589,0.0589,0.0526,0.0522,0.0518,0.0513,0,0,0,0,0]},{"header":{"parameterUnit":"m.s-1","parameterCategory":2,"la1":30.2991,"la2":30.254,"lo1":-89.0895,"lo2":-89.0444,"dy":0.0017,"dx":0.0017,"nx":28,"ny":28,"refTime":"2023-07-19T03:00:00:Z","depth":"4","parameterNumber":3,"parameterNumberName":"V-component_of_CURRENTS"},"data":[0,0,0,0,0,0,0,0,0,0,0,0,0,0,0,0,0,0,0,0,0,0,0,0,0,0,0,0,0,0,0,0,0,0,0,0,0,0,0,0,0,0,0,0,0,0,0,0,0,0,0,0,0,0,0,0,0,0,-0.0375,-0.0375,0,-0.0392,-0.0392,-0.0392,-0.0429,-0.0429,-0.043,-0.043,-0.0503,-0.0504,-0.0506,0,0,0,0,0,0,0,0,0,0,0,0,0,-0.0384,-0.0384,-0.0375,-0.0375,-0.0375,-0.0392,-0.0392,-0.0392,-0.0429,-0.0429,-0.043,-0.0431,-0.0502,-0.0504,-0.0506,0,0,0,0,0,0,0,0,0,0,0,0,0,-0.0391,-0.0384,-0.0375,-0.0393,-0.0395,-0.0391,-0.0392,-0.0393,-0.0429,-0.0429,-0.043,-0.0431,-0.0502,-0.0504,-0.0506,-0.0504,0,0,-0.0513,-0.0514,0,0,0,0,0,0,0,0,-0.039,-0.0391,-0.0391,-0.0392,-0.0394,-0.0407,-0.0422,-0.0432,-0.0428,-0.0418,-0.043,-0.0431,-0.0474,-0.0478,-0.0482,-0.0507,-0.051,-0.0513,-0.0514,-0.0515,-0.0516,0,0,0,0,0,0,0,-0.039,-0.039,-0.0384,-0.0391,-0.0392,-0.0404,-0.0406,-0.0424,-0.0444,-0.0419,-0.0421,-0.0419,-0.0476,-0.048,-0.0484,-0.0511,-0.0513,-0.0515,-0.0516,-0.0517,-0.0605,-0.0606,0,0,0,0,0,0,-0.0382,-0.039,-0.0383,-0.0384,-0.0391,-0.0403,-0.0405,-0.0404,-0.0443,-0.0449,-0.0418,-0.0421,-0.0476,-0.0482,-0.0487,-0.0541,-0.0515,-0.0517,-0.0518,-0.0604,-0.0605,-0.0606,0,0,0,0,0,0,-0.0382,-0.0381,-0.0383,-0.0386,-0.0386,-0.0402,-0.04,-0.0404,-0.0427,-0.0441,-0.0449,-0.044,-0.0477,-0.0484,-0.0523,-0.0542,-0.0518,-0.052,-0.0603,-0.0604,-0.0606,-0.0613,0,0,0,0,0,0,-0.0382,-0.0381,-0.0388,-0.0385,-0.0386,-0.0393,-0.0399,-0.0403,-0.0422,-0.0426,-0.0462,-0.0468,-0.0478,-0.052,-0.0525,-0.0544,-0.0522,-0.0601,-0.0604,-0.0605,-0.0612,-0.0615,-0.0618,0,0,0,0,0,-0.0382,-0.0381,-0.0388,-0.0388,-0.0391,-0.0393,-0.0396,-0.041,-0.0423,-0.0435,-0.0463,-0.0468,-0.0536,-0.0523,-0.0529,-0.0549,-0.0601,-0.0603,-0.0605,-0.061,-0.0614,-0.0618,0,0,0,0,0,0,-0.039,-0.0385,-0.0392,-0.0391,-0.0399,-0.0399,-0.0411,-0.0419,-0.0449,-0.0463,-0.0479,-0.0488,-0.0531,-0.0539,-0.0523,-0.0581,-0.057,-0.0574,-0.0572,-0.0576,-0.0579,-0.057,-0.0524,0,0,0,0,0,-0.0393,-0.0395,-0.0393,-0.0397,-0.0401,-0.0411,-0.0417,-0.0429,-0.0446,-0.0461,-0.0485,-0.0515,-0.0541,-0.0558,-0.0584,-0.0611,-0.0608,-0.063,-0.0633,-0.0635,-0.0634,-0.0643,-0.0646,-0.0614,-0.0614,-0.0614,0,0,-0.0399,-0.0396,-0.0399,-0.04,-0.0409,-0.0415,-0.0419,-0.0435,-0.0448,-0.0465,-0.0504,-0.053,-0.0553,-0.0588,-0.0607,-0.0599,-0.0643,-0.0638,-0.064,-0.0637,-0.0646,-0.0649,-0.0651,-0.0616,-0.0615,-0.0615,0,0,-0.0406,-0.0409,-0.0415,-0.042,-0.0431,-0.0433,-0.0441,-0.0455,-0.0474,-0.0507,-0.0526,-0.056,-0.0601,-0.0617,-0.063,-0.0664,-0.0661,-0.068,-0.0684,-0.0694,-0.0696,-0.0698,-0.0693,-0.0694,-0.0677,-0.0677,-0.0677,0,-0.0416,-0.0418,-0.0419,-0.0425,-0.043,-0.0442,-0.0451,-0.0466,-0.0495,-0.0512,-0.0526,-0.0589,-0.0612,-0.0643,-0.0659,-0.067,-0.0671,-0.0666,-0.0696,-0.0697,-0.0699,-0.0694,-0.0695,-0.0678,-0.0678,-0.0678,-0.0678,0,-0.0426,-0.0432,-0.0435,-0.0444,-0.0451,-0.0463,-0.0473,-0.0496,-0.0521,-0.0536,-0.0584,-0.0614,-0.0647,-0.0664,-0.0674,-0.0702,-0.0697,-0.0699,-0.0681,-0.0703,-0.0696,-0.0697,-0.0679,-0.0679,-0.0678,-0.0678,0,0,-0.044,-0.0441,-0.0447,-0.0451,-0.0464,-0.0468,-0.0492,-0.0511,-0.0527,-0.0569,-0.0591,-0.0645,-0.0662,-0.0678,-0.0696,-0.0707,-0.0722,-0.0711,-0.0711,-0.0696,-0.0735,-0.0686,-0.0683,-0.073,-0.0731,-0.0731,-0.0723,0,-0.0452,-0.0456,-0.0458,-0.0472,-0.0474,-0.0489,-0.0502,-0.0526,-0.055,-0.0575,-0.0611,-0.0641,-0.0665,-0.0683,-0.0701,-0.0718,-0.0728,-0.0724,-0.0725,-0.0725,-0.0671,-0.0683,-0.0733,-0.0723,-0.0724,-0.0724,-0.0724,0,-0.0465,-0.0463,-0.0473,-0.0476,-0.0481,-0.0494,-0.0516,-0.0532,-0.0562,-0.0582,-0.0617,-0.0639,-0.0671,-0.0684,-0.0719,-0.0716,-0.073,-0.0738,-0.0738,-0.069,-0.0679,-0.0701,-0.0726,-0.0726,-0.0726,-0.0726,-0.0726,0,-0.0467,-0.0475,-0.048,-0.0484,-0.049,-0.0507,-0.0518,-0.0543,-0.055,-0.0586,-0.0589,-0.0635,-0.0647,-0.0681,-0.0705,-0.0716,-0.0726,-0.0741,-0.0707,-0.0704,-0.0745,-0.0744,-0.0762,-0.0762,-0.0762,-0.0762,-0.0762,0,-0.0467,-0.0476,-0.0484,-0.0487,-0.0497,-0.051,-0.0525,-0.0541,-0.0555,-0.0553,-0.0594,-0.0588,-0.0648,-0.066,-0.0694,-0.0694,-0.0718,-0.0706,-0.0699,-0.0749,-0.0748,-0.0746,-0.0744,-0.0762,-0.0762,-0.0762,-0.0762,0,-0.0463,-0.047,-0.0475,-0.0489,-0.0496,-0.0506,-0.0516,-0.0518,-0.0536,-0.0529,-0.0536,-0.0553,-0.0564,-0.0606,-0.0643,-0.0661,-0.0679,-0.0673,-0.0707,-0.0703,-0.0655,-0.0654,-0.0641,-0.064,-0.0638,-0.0637,-0.0636,0,-0.0454,-0.0457,-0.0473,-0.0473,-0.0482,-0.0495,-0.0496,-0.0512,-0.0506,-0.0497,-0.0486,-0.0491,-0.0504,-0.0507,-0.0565,-0.0611,-0.062,-0.063,-0.0665,-0.0647,-0.0643,-0.0644,-0.0645,-0.0633,-0.0633,-0.0633,-0.0632,0,-0.0435,-0.045,-0.045,-0.0454,-0.046,-0.0457,-0.0462,-0.045,-0.0455,-0.0462,-0.0422,-0.0431,-0.0429,-0.0468,-0.0495,-0.0536,-0.0629,-0.0615,-0.062,-0.0652,-0.0638,-0.0635,-0.0638,-0.0627,-0.0628,-0.0628,-0.0629,0,-0.042,-0.0418,-0.0425,-0.0427,-0.0432,-0.0426,-0.0429,-0.0409,-0.0402,-0.0391,-0.0371,-0.0382,-0.0396,-0.0426,-0.0454,-0.0484,-0.0504,-0.0527,-0.0536,-0.0543,-0.0521,-0.0489,-0.0423,0,0,0,0,0,-0.04,-0.0397,-0.0393,-0.0397,-0.0403,-0.0412,-0.0404,-0.0404,-0.0401,-0.0359,-0.0364,-0.0358,-0.0378,-0.0391,-0.0409,-0.045,-0.0527,-0.0474,-0.0563,-0.0598,-0.0604,-0.0592,0,0,0,0,0,0,-0.0384,-0.0385,-0.0384,-0.0376,-0.0378,-0.0382,-0.0382,-0.0377,-0.0355,-0.0348,-0.0354,-0.0359,-0.0383,-0.0363,-0.0407,-0.0418,-0.0475,-0.049,-0.049,-0.0595,-0.06,-0.0605,-0.0595,0,0,0,0,0]}]]